ECMWFFLT1_prec_cthk_132.txt.gz
RH
74 73 73 75 74 68 58 55 58 54 55 61 52 45 54 56 46 42 43 41 33 29 31 30 28 29 28 29 29 28 28 28 27 27 31 35 36 36 35 35 36 36 38 40 38 39 40 39 40 43 44 42 37 34 36 36 36 35 36 37 37 37 38
74 74 74 75 74 69 60 55 56 55 58 60 50 44 52 55 48 44 44 43 37 29 28 29 29 29 29 29 29 28 27 27 26 25 27 30 32 34 36 36 37 36 38 39 39 40 40 38 38 39 41 41 39 36 35 35 35 33 33 36 37 38 38
72 73 73 73 73 72 67 59 56 56 56 56 51 44 46 49 49 46 44 45 40 32 28 29 29 29 30 29 29 29 28 28 29 27 27 27 28 31 35 37 38 38 38 38 38 40 40 40 39 37 38 40 41 40 37 35 35 33 32 33 35 37 38
70 71 71 69 70 74 72 62 57 57 54 54 56 51 44 45 48 46 45 47 43 34 31 30 29 31 32 30 29 30 28 29 30 31 30 30 31 32 34 35 36 38 39 38 38 40 40 40 40 38 36 36 37 38 37 36 35 34 33 33 33 35 36
69 70 71 69 69 72 70 64 61 58 54 55 59 55 47 46 47 46 47 49 46 39 34 32 31 33 35 33 32 32 30 28 30 33 34 35 36 36 36 38 38 38 39 39 40 40 39 38 40 40 38 36 34 33 34 35 35 35 35 35 34 35 35
70 71 72 72 71 71 73 72 67 62 58 57 59 57 51 50 49 48 49 50 48 45 41 37 35 36 36 35 35 35 34 32 31 34 36 36 38 40 40 40 40 40 41 41 42 42 41 39 39 40 41 40 37 35 35 35 35 36 37 36 35 34 34
73 72 72 73 74 75 77 77 72 67 61 58 61 62 57 51 46 47 53 53 49 47 46 41 38 38 37 36 36 35 36 37 35 35 37 38 40 41 43 44 43 43 44 44 44 45 45 44 42 41 41 41 41 40 39 38 38 38 39 38 37 35 34
75 72 72 73 74 75 77 75 73 72 66 59 64 65 59 53 47 48 55 55 50 48 45 42 41 41 38 37 38 37 37 39 39 38 39 40 40 42 44 46 45 45 46 47 47 47 48 48 47 46 43 42 42 43 42 41 41 41 41 42 41 40 41
74 73 72 74 75 74 75 74 75 80 76 68 65 63 61 59 52 53 59 56 48 45 44 43 44 44 44 41 39 39 39 41 43 43 42 41 41 42 43 44 45 46 48 48 48 49 50 51 50 51 50 47 45 46 46 46 45 45 45 45 44 43 44
71 69 70 74 78 77 76 76 77 81 84 80 72 67 69 67 58 58 63 59 52 47 44 43 43 47 52 50 43 41 42 42 44 45 44 44 42 41 42 44 46 47 48 50 51 51 51 52 53 54 54 53 50 49 48 49 49 49 50 51 50 48 47
74 72 71 72 77 78 77 77 78 79 84 85 81 76 75 70 64 62 61 59 57 53 48 45 45 49 55 53 47 47 48 45 45 47 46 46 46 45 43 44 46 47 48 51 53 53 54 55 58 57 56 56 55 52 52 52 50 49 50 53 54 53 53
76 76 75 73 73 73 72 74 77 80 83 84 82 83 80 71 66 66 65 61 59 58 54 50 48 51 54 55 54 54 56 51 46 46 46 48 53 52 48 46 46 47 48 50 52 56 58 58 59 59 59 59 57 54 54 55 54 53 53 53 54 55 55
72 73 74 72 70 69 70 73 75 78 84 84 81 86 85 73 66 68 70 67 66 67 62 53 51 52 53 58 59 56 58 57 50 45 46 51 54 54 52 52 52 49 49 51 53 56 58 59 61 64 64 64 64 59 57 58 58 58 58 56 56 57 56
71 72 73 71 70 69 71 75 76 77 83 85 82 87 90 79 71 73 75 76 78 78 69 57 55 52 50 56 61 57 55 56 53 47 46 48 49 49 52 55 55 55 54 54 54 54 55 58 65 67 65 67 72 69 63 62 62 61 61 60 60 59 57
73 73 73 72 71 72 74 79 85 85 86 86 85 89 91 83 78 81 83 80 78 75 68 63 60 54 50 54 57 54 51 51 52 49 45 44 42 41 45 48 52 57 59 57 56 55 53 55 63 69 68 68 74 74 69 66 67 67 66 64 62 61 59
75 73 71 72 75 77 79 85 93 95 90 88 88 88 86 82 82 86 85 77 71 65 61 60 60 59 56 54 52 50 50 51 52 50 49 47 43 41 42 42 45 49 54 57 59 57 55 54 58 67 72 69 68 71 72 69 68 70 70 68 66 63 62
73 72 71 73 78 82 82 84 92 95 91 88 87 85 84 83 83 84 82 75 69 65 63 61 64 66 62 56 53 52 52 52 52 54 56 54 49 47 47 45 44 43 45 51 55 56 55 54 55 63 70 66 60 65 72 71 69 69 69 69 68 66 65
74 73 73 74 77 82 84 84 87 91 91 89 87 87 87 87 84 83 83 78 72 71 72 70 70 72 69 62 57 57 58 59 59 61 63 60 55 53 52 49 48 47 45 49 53 54 54 53 53 60 67 65 60 61 66 66 68 70 70 70 69 68 66
77 74 74 73 74 83 88 85 84 87 88 88 88 88 88 86 85 85 85 84 82 80 79 76 74 76 76 70 65 67 69 70 70 70 68 67 64 62 60 58 56 54 52 52 53 54 55 54 53 57 63 65 63 62 62 62 64 66 69 71 70 67 65
77 77 76 73 76 84 87 85 83 82 81 83 85 84 84 84 86 86 84 83 83 80 79 78 77 77 78 76 73 74 75 77 78 76 74 76 74 72 72 71 69 68 66 63 60 58 57 56 56 57 61 63 63 63 65 66 66 63 61 65 69 68 65
78 79 76 75 77 79 81 83 83 79 77 79 81 81 80 81 81 83 84 83 80 78 79 79 77 75 75 76 77 78 79 81 81 79 80 82 79 78 78 76 76 77 76 75 72 68 65 63 62 62 63 62 61 62 64 66 67 65 61 60 64 67 68
77 78 76 78 77 75 76 80 81 81 80 79 78 78 79 78 77 75 76 77 77 79 80 81 80 78 76 78 80 81 82 83 83 82 83 82 80 81 79 77 79 79 78 77 77 74 74 73 71 69 68 66 65 65 65 65 67 67 66 64 63 64 67
75 79 80 79 77 74 74 76 77 80 82 79 77 77 78 79 79 76 74 73 75 77 79 80 79 77 76 78 80 81 81 81 81 80 79 79 78 78 77 76 77 77 75 76 76 76 77 78 78 78 74 71 71 70 70 70 71 70 67 66 67 66 65
74 78 79 78 79 78 75 74 73 74 77 77 75 76 77 79 81 80 79 79 78 79 79 80 79 77 77 77 78 78 76 75 76 77 77 77 76 75 76 78 78 77 77 77 77 78 81 81 80 82 81 79 77 76 74 75 76 74 71 68 68 66 65
74 77 76 74 78 80 77 75 73 72 73 73 72 71 72 75 76 76 77 78 78 77 77 76 75 74 74 73 72 72 72 73 76 78 77 77 76 76 78 79 79 81 83 83 81 81 85 87 84 85 88 87 84 81 80 81 81 79 77 74 70 66 65
77 78 75 71 73 74 74 73 72 72 74 74 72 69 67 68 69 70 71 71 69 69 69 69 70 69 68 68 68 68 70 73 76 77 78 78 78 77 77 78 81 86 90 92 90 87 88 90 90 91 94 93 89 86 85 85 85 84 82 80 77 73 69
79 76 72 70 69 68 68 68 68 69 71 71 70 68 65 63 61 61 63 64 63 63 63 64 66 68 69 71 71 71 72 74 76 78 78 78 78 77 77 78 82 87 90 93 95 95 95 95 94 93 94 94 91 90 89 89 88 87 85 83 82 81 77
79 74 68 68 68 68 67 67 65 66 65 64 63 63 63 61 59 57 58 60 63 66 66 64 65 67 70 73 74 75 75 75 74 75 75 75 76 78 80 82 85 88 91 92 93 93 93 94 94 93 93 92 91 91 91 90 89 88 88 87 86 86 83
76 74 70 68 68 68 67 65 64 63 62 61 58 55 54 54 55 55 56 58 61 65 66 66 65 64 66 69 71 72 73 72 71 72 73 77 80 82 82 83 84 87 89 90 91 90 88 88 90 92 92 92 94 94 93 92 91 90 90 90 89 89 87
73 73 73 71 70 69 66 64 64 63 62 62 60 56 53 51 49 49 50 53 55 58 61 63 62 61 61 64 65 65 66 68 69 70 72 74 76 78 79 78 78 79 81 81 83 87 87 86 86 89 91 93 95 96 95 93 92 91 91 91 91 90 89
71 71 71 71 69 66 64 62 63 63 62 62 61 61 60 56 53 51 49 49 50 51 53 55 55 55 56 58 60 62 63 65 67 68 69 70 70 72 73 74 73 73 73 74 76 80 83 84 84 85 86 88 91 93 93 92 91 90 89 90 91 90 91
71 72 72 71 68 66 64 62 61 61 61 60 59 59 60 60 60 59 57 57 56 52 49 49 49 49 50 52 56 59 60 62 63 64 67 68 69 69 69 70 70 69 69 69 70 71 73 75 76 77 78 79 83 86 88 89 89 89 88 89 89 90 91
72 72 71 70 67 66 64 62 61 60 59 58 57 56 57 59 60 60 60 60 60 57 54 52 50 49 48 48 49 51 52 54 56 58 59 61 63 64 64 65 66 65 65 66 65 65 66 68 68 70 71 73 76 79 81 82 84 85 86 86 86 87 90
74 72 69 66 64 63 64 64 64 62 60 60 59 57 57 58 59 60 60 61 62 61 59 56 54 54 53 52 51 51 51 50 49 50 52 54 55 57 57 59 60 59 58 59 58 58 61 64 62 62 64 67 70 74 75 76 78 79 79 79 77 78 80
78 76 73 70 67 66 66 66 65 64 63 61 60 59 59 60 60 60 60 60 61 59 57 55 54 54 55 55 55 55 55 53 49 47 48 49 49 50 51 53 55 56 55 55 55 55 56 57 57 57 58 60 64 65 65 66 68 68 67 67 67 66 68
77 77 77 76 75 74 72 70 69 68 66 63 61 59 60 60 60 59 58 57 56 53 51 50 51 51 53 53 53 53 54 53 49 47 46 46 46 46 47 47 48 51 52 53 54 55 56 56 56 57 57 58 59 60 60 59 60 60 59 60 60 60 62
77 79 79 80 80 78 76 75 73 71 69 67 65 63 61 60 59 57 56 54 52 50 48 47 47 48 49 48 48 50 50 49 44 41 40 41 41 41 42 42 42 43 45 47 49 50 51 51 52 52 52 52 52 53 53 53 54 54 54 55 56 58 63
83 83 84 84 83 81 80 78 75 74 72 71 69 67 65 64 62 58 55 53 50 49 49 47 46 46 45 44 43 44 44 44 41 37 37 38 36 35 36 35 33 34 35 36 37 40 41 43 44 44 45 44 44 44 44 44 45 45 45 47 49 54 62

ECMWFFLT1_prec_cthk_135.txt.gz
RH
72 72 70 71 73 75 76 76 73 63 59 62 62 64 66 58 49 47 45 41 35 31 31 31 30 29 28 28 28 30 33 34 34 37 40 41 40 37 36 35 33 33 34 34 35 38 39 40 42 43 43 42 39 36 34 36 36 34 35 37 37 37 38
70 72 73 72 73 74 76 77 74 66 59 61 63 63 64 59 53 51 48 43 37 32 29 30 30 31 30 29 29 29 29 31 32 33 36 38 38 37 34 31 31 33 34 35 36 36 37 38 40 41 42 41 39 38 35 35 34 33 32 33 35 36 36
68 70 72 73 75 76 76 77 77 70 61 60 62 62 62 60 54 54 52 45 40 35 30 29 29 30 31 30 29 30 29 29 29 29 30 32 34 37 36 33 32 35 37 38 39 39 37 38 38 39 39 39 40 40 38 36 35 35 32 30 32 35 36
67 68 70 71 74 77 77 77 77 74 65 62 61 61 64 62 54 55 55 48 43 39 32 28 28 29 30 31 30 30 30 29 29 27 26 27 28 31 35 36 37 38 39 39 40 40 40 40 39 38 38 38 38 37 36 35 35 35 34 32 31 32 34
70 69 70 72 72 75 78 76 77 75 69 65 61 61 65 65 55 53 56 52 46 42 36 29 27 28 28 30 31 30 30 30 29 29 28 27 27 28 30 33 37 39 40 41 40 40 41 41 41 40 39 38 37 34 32 31 33 34 33 33 33 33 34
70 69 70 73 72 73 77 78 77 74 71 67 63 61 64 65 58 51 52 53 49 44 41 33 28 27 27 28 31 31 29 29 29 29 29 28 28 28 30 31 35 38 40 42 42 41 41 41 41 41 41 40 39 37 34 32 32 33 33 34 34 33 34
70 70 71 72 72 73 78 81 78 75 72 69 67 65 64 63 61 56 51 51 50 47 44 39 31 28 27 27 29 31 30 28 28 28 29 31 32 34 36 37 38 40 40 42 44 44 44 44 43 43 43 42 42 41 40 38 36 36 35 36 36 36 36
72 71 72 72 70 71 75 78 78 78 75 70 69 70 69 64 63 64 56 48 48 49 47 44 39 34 32 31 31 31 31 31 30 30 31 34 36 38 41 43 44 44 44 45 47 47 48 47 47 47 46 46 45 44 44 45 44 42 41 41 41 41 40
75 75 75 75 72 70 71 74 76 79 77 71 68 69 71 71 68 68 64 54 50 51 50 48 45 42 40 39 37 35 35 36 35 33 34 34 37 40 43 45 47 48 48 48 49 49 50 50 50 51 51 50 49 49 49 49 48 47 47 46 46 46 45
78 82 81 79 76 72 71 73 75 77 74 71 69 67 69 74 73 71 72 68 59 52 52 52 50 48 46 44 42 40 39 39 39 38 38 37 39 42 44 45 46 48 48 49 50 51 52 52 52 53 54 54 55 54 54 55 56 55 55 53 51 51 52
73 80 82 82 81 76 74 74 75 76 76 75 74 73 73 75 74 72 75 78 73 61 54 55 53 49 48 48 46 44 42 41 42 43 44 44 43 44 45 44 45 47 48 49 51 53 54 55 56 57 57 59 60 59 59 64 67 64 62 63 61 57 56
68 72 77 81 83 81 78 77 76 76 77 78 78 77 77 76 76 76 76 81 86 75 59 58 60 54 50 51 50 48 47 47 46 44 46 48 48 48 47 46 45 46 48 50 51 52 55 56 58 61 62 62 63 62 62 66 67 63 61 65 67 63 62
69 69 73 77 80 81 79 77 77 76 75 76 77 77 77 76 76 78 77 81 89 84 67 62 67 64 56 52 52 53 53 53 51 48 49 50 51 51 52 52 54 54 52 52 51 53 55 56 58 62 63 63 64 66 68 70 71 70 68 67 67 65 69
70 70 71 74 77 79 78 76 76 77 75 73 75 77 77 78 79 80 81 83 87 88 78 68 68 72 68 60 58 61 62 59 56 57 59 58 53 52 54 57 61 62 57 54 55 55 56 58 60 62 63 64 66 68 71 72 73 74 73 71 70 68 68
70 71 71 72 74 77 79 78 75 74 74 73 73 74 76 80 82 82 84 83 81 84 82 71 67 73 75 71 67 69 72 72 69 69 70 66 58 53 54 57 59 59 58 58 60 59 59 59 60 60 59 60 64 68 70 70 73 76 76 75 74 72 69
68 70 71 72 72 74 77 78 75 71 70 71 71 69 71 77 79 80 83 80 77 82 84 75 71 76 79 77 73 72 75 76 75 74 73 71 68 61 57 56 54 52 52 53 55 57 61 62 61 58 56 56 60 64 67 69 71 74 77 78 75 73 71
68 68 70 71 73 75 76 75 75 73 71 73 78 75 71 73 76 78 81 79 78 85 88 82 78 81 80 76 73 73 72 69 71 77 76 74 74 69 61 58 55 51 48 47 47 50 54 58 60 59 58 58 57 58 61 67 68 68 72 76 76 74 72
70 70 70 71 76 81 80 77 77 76 76 82 93 93 86 85 86 85 85 81 78 84 88 83 80 82 82 78 74 70 68 65 70 76 74 70 71 69 65 61 58 55 53 51 50 50 49 51 54 57 59 58 55 54 57 64 68 67 68 73 76 76 74
71 71 70 73 78 80 81 81 79 78 80 86 91 92 92 94 93 91 88 83 78 80 81 77 75 77 80 80 74 67 63 65 68 70 68 67 68 67 64 60 59 59 59 56 55 55 54 52 52 53 56 57 55 54 56 61 67 68 67 69 71 71 71
69 72 73 74 77 76 78 81 80 79 82 86 87 86 87 89 89 88 87 84 81 80 78 74 72 73 76 78 78 74 70 71 74 73 71 70 68 66 65 64 66 66 65 63 62 61 59 58 56 54 55 57 57 56 57 60 64 66 67 68 69 68 67
72 76 77 76 75 74 75 77 78 79 80 84 87 87 85 83 82 82 83 83 83 82 80 77 75 77 81 82 83 82 79 77 77 76 75 75 74 72 72 73 74 73 71 70 69 68 67 67 66 63 61 61 60 60 61 62 62 62 64 66 67 67 67
76 79 81 79 76 74 76 76 74 74 76 78 81 83 83 82 81 81 82 85 85 83 81 79 78 80 83 83 83 84 83 82 81 79 77 78 78 78 78 78 78 78 78 78 75 74 74 73 72 72 72 71 69 67 68 67 64 63 62 63 64 64 66
79 80 81 80 75 72 72 72 70 73 79 78 76 78 82 84 84 83 83 86 88 87 85 83 82 82 82 82 84 85 85 85 85 83 81 80 80 79 79 79 79 78 80 79 77 76 76 75 74 73 75 78 78 76 76 75 73 70 68 67 67 68 69
85 82 77 73 72 72 72 71 71 75 79 79 77 77 80 82 83 83 83 86 88 88 88 87 86 84 83 84 84 83 82 83 82 80 80 79 79 79 78 78 79 78 78 77 77 78 79 78 77 77 79 83 84 82 82 81 79 77 75 74 74 74 75
90 85 77 72 72 75 76 75 73 72 73 75 77 79 79 79 81 83 84 86 87 87 88 88 88 86 85 86 84 82 83 83 80 78 77 77 78 79 79 79 81 81 80 79 80 82 82 81 82 84 87 87 85 85 85 84 83 83 80 78 77 77 78
87 86 80 76 76 76 75 75 74 70 67 67 71 75 78 79 79 82 83 82 81 82 84 86 88 89 90 89 87 85 84 82 79 78 77 77 79 81 81 82 82 81 80 79 81 83 83 83 86 89 89 88 87 89 91 90 88 88 86 83 81 81 81
83 81 78 78 80 78 76 75 74 71 67 65 65 67 71 73 73 76 77 77 77 78 79 81 82 84 85 86 85 84 82 80 80 79 76 77 81 82 83 82 79 76 76 78 81 82 81 84 90 91 89 87 87 90 93 92 89 88 89 88 87 86 85
81 77 75 77 79 78 75 73 71 69 67 65 63 64 65 65 67 70 72 73 75 77 78 79 79 79 78 78 77 78 78 79 80 81 80 81 82 83 84 83 80 78 79 80 80 81 84 88 90 88 86 87 89 90 92 91 89 88 89 90 90 91 90
81 77 74 75 77 77 75 74 73 70 65 60 57 57 58 58 60 63 66 68 70 73 74 75 75 75 74 72 71 72 74 76 79 81 82 82 82 81 81 81 80 82 84 84 81 83 88 90 87 85 85 85 87 88 88 88 88 89 90 91 92 91 91
79 76 72 73 77 78 77 77 76 72 68 63 58 54 52 52 53 54 57 60 63 65 68 69 71 71 71 70 69 68 69 71 74 76 77 77 76 75 73 73 74 77 81 84 83 83 86 86 86 89 89 86 85 89 92 93 92 91 90 91 91 90 89
78 74 71 73 77 77 76 76 75 71 69 67 63 59 55 55 54 53 52 54 55 56 56 57 59 61 63 64 64 63 63 64 65 66 69 70 70 70 69 68 67 68 71 74 77 79 79 79 80 83 84 82 82 87 90 89 87 85 83 82 83 85 86
75 71 69 73 77 76 75 75 74 71 70 68 67 65 63 63 62 61 59 58 57 57 55 52 50 50 51 53 54 54 55 56 56 58 60 63 64 64 64 64 65 64 64 64 66 67 68 68 69 69 71 71 71 73 75 76 76 76 76 75 76 78 81
74 72 70 72 74 74 74 73 71 70 70 70 68 67 65 65 66 65 64 62 61 59 59 58 56 53 50 48 47 47 47 48 49 50 50 52 53 53 54 55 56 57 56 56 55 54 55 57 59 60 62 63 61 61 64 66 67 69 70 69 70 72 74
75 74 73 73 72 71 71 71 69 68 69 68 68 66 64 64 64 63 62 61 61 60 60 60 59 58 56 52 48 46 46 46 46 46 46 46 45 45 45 46 47 48 48 48 48 48 48 49 50 52 54 53 52 52 55 56 57 58 59 59 60 63 64
77 77 76 76 75 73 71 70 70 70 69 69 69 68 66 65 63 60 57 57 58 59 59 60 60 59 59 56 50 45 45 45 45 44 43 42 42 42 41 42 43 45 45 46 46 46 45 45 46 46 47 47 45 45 46 48 49 50 51 53 55 57 59
76 76 77 79 79 78 75 73 72 71 71 71 70 69 67 66 63 60 57 56 56 56 56 56 56 55 55 54 50 46 44 45 44 43 41 40 39 39 38 39 40 41 42 44 45 45 44 44 44 44 44 44 44 44 44 45 45 46 47 50 53 58 62
74 76 80 83 83 83 81 77 74 73 71 70 69 67 64 62 59 57 56 55 54 52 49 47 47 47 48 48 47 47 46 44 43 42 41 41 39 37 36 36 35 36 37 38 39 40 41 41 41 41 40 40 41 40 41 41 41 41 43 45 50 56 61
77 79 84 86 86 88 86 81 77 74 71 69 67 65 64 61 57 54 55 54 51 47 46 43 42 42 44 44 44 44 42 40 38 39 40 39 38 35 34 33 31 30 32 31 29 30 33 34 33 34 34 34 34 34 34 34 35 37 39 43 48 52 55

ECMWFFLT1_prec_cthk_138.txt.gz
RH
78 78 77 76 78 78 78 78 80 78 71 63 60 61 61 60 57 51 46 45 42 35 32 33 34 34 34 35 36 36 36 37 39 39 41 43 43 44 45 44 42 42 43 42 40 40 39 40 43 46 44 41 41 40 41 43 43 42 43 43 42 41 42
76 77 77 76 76 77 78 77 78 81 78 68 61 60 60 60 59 55 48 44 43 38 33 31 33 32 30 32 34 35 35 35 37 39 41 42 42 42 43 42 41 41 40 40 40 40 40 41 44 47 48 46 45 42 41 42 40 39 38 38 38 39 40
71 75 78 77 75 76 77 76 75 78 80 76 67 60 59 59 60 59 53 46 43 41 35 30 31 31 29 29 31 33 35 35 36 38 40 41 41 40 40 39 39 39 38 39 41 41 40 40 41 44 47 47 46 45 44 42 41 39 37 35 35 37 39
69 73 75 77 76 76 77 77 76 76 78 79 73 63 59 60 60 60 56 50 44 42 38 32 30 31 31 29 29 31 34 34 35 36 37 38 38 39 38 38 38 37 36 38 41 42 41 40 40 41 43 44 44 45 46 46 43 41 38 36 34 34 36
68 72 74 76 78 78 76 75 76 75 75 79 78 69 61 60 60 59 58 56 50 44 40 35 30 30 31 32 30 30 31 33 34 34 34 34 35 36 36 36 35 35 35 37 40 42 42 43 43 41 41 42 42 42 43 43 41 40 39 37 35 34 34
67 72 74 75 75 77 79 77 76 74 74 78 80 75 65 62 61 59 58 57 55 50 45 38 33 29 30 32 32 31 31 31 32 32 32 32 32 32 32 32 33 35 37 39 41 43 43 43 44 42 41 41 40 40 39 37 36 35 37 38 37 36 35
67 71 74 75 74 75 80 83 82 78 77 78 80 78 70 63 63 64 65 63 60 56 50 42 37 32 30 30 32 32 32 31 31 31 31 30 30 30 30 30 32 35 38 41 44 44 44 43 43 43 42 42 42 41 40 39 37 34 33 34 36 36 37
66 70 74 76 77 77 79 84 86 84 83 81 80 80 73 66 65 68 71 72 69 66 61 53 43 35 31 30 31 32 32 32 32 32 31 31 30 29 30 31 32 34 37 41 43 44 45 44 44 44 44 44 43 43 43 43 42 41 38 36 37 38 38
65 67 71 74 78 81 81 83 86 87 86 83 80 80 75 69 69 70 71 74 74 73 73 69 60 47 37 31 29 31 33 33 33 32 32 31 30 31 32 33 34 37 41 41 42 45 46 46 46 47 50 53 51 47 46 46 46 47 47 45 45 45 45
65 65 67 70 76 82 84 83 82 84 87 86 82 81 77 70 69 71 75 78 78 74 72 73 71 61 48 38 32 31 32 33 33 33 32 31 32 33 34 36 38 42 45 46 46 47 48 49 49 50 57 61 58 53 51 51 51 53 54 53 56 58 58
66 65 65 68 73 78 82 82 80 80 85 87 84 81 80 74 70 71 75 79 79 75 72 71 69 63 53 46 40 36 35 35 34 33 34 34 34 34 35 40 43 46 48 49 50 50 50 52 53 54 58 62 60 57 57 57 58 60 61 62 66 69 67
64 65 65 67 71 75 79 80 80 80 81 84 84 83 82 80 76 73 75 78 79 78 76 72 70 66 58 52 51 47 43 41 39 38 40 40 39 38 39 42 46 48 48 49 50 51 51 52 54 56 59 60 61 61 61 62 63 65 68 68 68 69 67
62 64 65 68 71 76 79 80 80 82 83 84 84 84 84 83 81 76 75 76 79 81 80 77 75 72 65 60 62 60 52 48 46 44 44 44 44 45 44 45 47 47 47 48 49 51 54 55 58 62 62 62 62 63 63 64 64 67 71 72 70 71 70
60 62 65 67 70 74 79 83 82 83 85 86 86 86 86 85 83 80 77 76 79 81 84 83 78 76 71 65 67 68 61 54 51 49 48 48 47 49 50 50 50 48 48 48 48 52 57 57 58 62 65 64 63 64 65 66 66 69 73 74 74 76 75
57 60 64 67 70 72 76 82 83 84 84 85 87 89 88 87 85 84 82 80 81 82 84 85 80 77 77 70 68 71 67 59 56 57 58 57 52 51 54 58 61 58 56 55 54 59 63 61 60 62 63 63 63 65 66 66 67 70 73 74 75 76 77
55 59 62 65 69 71 73 77 80 83 83 82 84 87 89 87 85 84 83 83 84 84 83 84 80 78 79 74 71 75 71 64 64 67 71 70 62 57 60 65 68 65 64 63 62 65 67 67 67 67 65 65 64 63 62 61 63 68 71 72 73 76 78
56 59 63 65 66 68 72 74 77 80 80 80 81 82 84 85 82 80 83 86 87 86 84 83 81 83 83 77 74 78 76 71 71 74 79 79 72 67 70 71 69 65 64 64 61 61 62 62 62 62 63 63 63 60 58 57 58 63 66 66 69 74 79
59 62 65 67 67 70 72 74 77 79 78 78 76 74 75 79 80 79 82 88 90 89 89 88 87 88 87 80 78 81 82 80 78 77 81 82 78 76 75 74 70 66 65 62 56 54 55 54 53 53 54 58 61 62 62 61 60 59 59 60 63 70 76
61 62 65 67 69 71 71 73 76 78 78 77 73 72 73 74 76 78 80 86 91 90 91 92 91 90 89 85 82 81 83 85 83 80 79 80 81 81 79 76 73 70 67 64 59 56 55 54 53 52 52 54 56 59 62 64 64 61 58 58 59 63 69
64 64 66 67 68 69 69 72 76 78 79 77 74 79 81 77 77 80 80 84 90 91 92 93 91 91 93 90 86 83 82 85 86 83 80 79 78 79 77 74 71 69 68 67 64 61 59 58 57 57 55 54 54 54 55 58 60 60 59 60 60 60 63
68 67 67 66 66 65 67 72 75 76 80 80 78 82 84 82 85 87 81 82 88 91 92 93 92 94 95 92 89 87 86 85 84 81 78 75 73 71 71 72 71 71 70 68 65 62 60 60 61 61 60 58 57 56 55 54 55 56 57 60 61 61 62
71 71 69 67 66 65 66 71 74 75 79 80 80 81 81 82 88 90 85 83 85 86 88 90 91 93 92 88 86 87 86 84 83 79 76 74 72 71 74 77 78 76 73 70 69 66 65 66 67 67 66 65 64 65 65 65 64 63 64 64 63 62 62
74 73 72 71 71 70 70 71 74 76 78 78 78 80 80 79 82 86 87 87 83 81 84 88 88 87 86 84 84 85 85 83 82 82 81 80 78 77 81 83 81 76 73 72 72 70 71 72 73 74 74 73 73 74 76 78 78 79 79 79 74 69 65
75 76 76 75 74 74 73 72 72 73 75 76 77 78 77 77 79 83 86 89 86 82 83 87 88 86 85 85 85 87 86 85 84 84 85 85 82 81 83 83 80 76 73 72 73 73 72 74 76 77 78 79 77 75 76 78 80 82 85 86 84 80 76
79 81 81 79 76 74 72 71 71 71 73 76 80 80 77 77 79 81 82 85 87 87 87 89 89 87 88 88 87 87 87 84 83 84 84 83 82 82 81 81 80 78 76 75 76 76 75 77 79 80 79 79 79 78 78 81 83 85 88 88 88 87 85
83 85 83 79 76 72 70 71 73 74 74 76 80 82 80 80 80 80 81 83 86 87 88 89 90 90 90 90 89 89 88 85 84 85 86 85 84 83 82 82 82 81 80 79 79 81 81 82 84 84 82 81 82 83 85 88 90 91 92 92 92 92 90
82 83 80 76 74 72 71 73 76 77 78 78 79 80 80 80 80 81 83 86 86 86 86 85 86 87 88 88 87 87 86 84 83 84 85 85 84 83 83 82 82 82 80 79 79 82 83 83 85 87 86 85 85 87 88 89 92 94 94 93 94 94 92
82 81 78 74 71 68 70 72 74 77 78 78 78 78 77 76 77 79 81 83 85 86 86 85 86 86 86 86 86 87 86 83 82 82 85 86 85 84 83 83 83 82 81 81 81 81 83 84 86 88 89 89 89 90 89 88 90 93 93 92 93 95 96
81 81 79 77 74 71 71 72 73 76 78 78 76 75 73 73 74 76 75 77 79 82 83 85 86 86 85 84 85 86 86 86 84 85 86 87 88 88 87 88 89 88 86 85 83 82 84 85 86 88 91 92 92 91 89 89 91 95 94 91 89 91 94
80 81 80 81 80 79 78 78 76 75 76 76 72 67 65 66 68 70 71 73 75 76 77 78 79 80 81 81 81 81 81 82 83 83 83 84 86 87 87 88 89 87 86 85 83 82 86 88 87 87 89 90 90 91 92 94 96 96 94 92 92 92 91
81 82 84 83 82 82 82 82 81 79 76 74 70 65 62 61 62 64 66 68 69 69 69 69 69 70 71 72 74 75 76 76 76 75 75 76 76 77 78 80 82 82 82 81 80 80 84 86 86 86 85 85 87 89 90 91 93 93 92 92 93 92 89
83 83 86 86 83 82 83 82 81 79 76 73 71 69 67 65 63 62 61 60 59 58 58 57 57 57 58 59 61 64 65 65 64 62 61 60 59 59 60 61 64 67 70 72 73 73 74 75 75 75 76 76 77 79 80 80 81 84 84 84 84 84 84
83 82 87 90 87 83 80 79 78 76 72 70 69 68 68 68 67 65 63 63 61 58 54 51 50 50 50 51 52 52 53 53 52 51 50 50 49 48 48 48 49 52 55 58 60 61 62 62 61 62 64 66 68 69 70 71 71 73 75 75 75 76 78
81 81 86 90 89 85 78 74 74 74 71 69 67 65 64 66 68 67 68 67 65 61 56 52 50 50 49 48 48 47 47 47 46 46 46 47 47 47 47 47 47 47 48 49 51 52 53 53 53 53 54 56 57 57 58 59 60 62 64 66 67 69 72
80 80 83 85 86 86 81 75 74 75 73 70 67 64 62 64 65 67 68 67 65 63 59 55 51 50 50 48 48 47 47 47 46 45 44 43 44 45 46 47 47 47 48 47 47 47 48 48 49 50 49 49 50 50 50 51 52 54 56 59 63 67 70
80 78 80 79 81 82 81 77 76 76 74 72 69 67 65 64 63 63 64 64 64 62 60 56 54 53 52 51 51 52 53 52 51 50 47 45 44 44 43 44 45 46 46 46 46 45 44 44 44 44 45 45 45 44 44 46 49 52 55 56 58 62 65
81 79 79 78 78 79 80 79 76 74 73 73 72 70 68 65 63 62 62 62 62 61 58 56 55 54 53 51 51 53 53 53 52 51 48 47 46 45 43 42 42 42 43 43 43 41 41 40 39 38 38 38 38 38 39 42 46 49 52 53 54 55 56
81 79 79 79 78 78 81 81 78 75 74 72 70 69 67 64 63 62 62 61 60 58 56 52 50 50 49 47 46 46 46 46 46 45 43 42 41 40 38 36 35 34 34 34 33 32 32 32 31 30 30 29 30 31 33 36 40 43 45 48 49 49 49

ECMWFFLT1_prec_cthk_141.txt.gz
RH
73 72 73 75 76 77 79 81 82 80 74 68 62 58 58 59 56 50 46 42 36 30 28 28 29 31 34 35 37 38 37 37 37 39 40 41 42 43 44 47 49 46 44 44 43 40 40 40 39 41 42 40 38 40 42 43 44 44 45 47 45 43 44
72 74 74 75 78 78 77 78 81 81 78 76 71 62 58 59 58 55 49 44 39 33 29 28 27 28 29 32 35 37 37 37 37 38 40 40 41 42 43 44 46 45 43 44 42 41 40 38 37 38 41 40 40 39 40 41 42 42 43 43 41 39 40
67 72 74 75 79 81 80 79 79 79 80 81 79 69 60 58 59 58 53 47 42 37 33 30 28 27 28 29 32 34 35 36 37 37 38 40 40 40 42 43 42 42 42 41 40 39 39 38 38 38 39 41 43 42 41 40 40 40 40 38 37 36 37
62 67 70 74 78 81 82 80 79 79 81 83 84 79 68 62 60 61 59 52 45 41 37 33 30 28 28 28 28 31 33 34 34 35 36 37 39 39 40 41 41 40 40 39 38 38 38 38 38 39 39 41 44 44 43 42 41 41 40 37 34 33 34
59 62 66 70 74 78 80 79 79 82 82 81 82 84 80 74 67 63 62 59 51 44 40 35 32 29 28 27 27 28 30 32 33 33 34 35 36 38 39 39 39 38 37 37 37 38 38 37 37 38 39 39 41 41 41 42 43 42 41 39 35 32 31
62 60 63 67 69 73 77 77 77 80 81 79 77 80 84 84 78 68 64 64 59 50 43 39 36 32 29 27 27 27 27 30 31 32 34 34 34 36 37 36 37 36 35 35 36 37 37 37 38 40 40 40 39 38 38 41 42 41 40 39 36 34 33
64 61 61 65 66 69 74 76 77 79 79 78 76 78 80 82 81 76 68 65 64 58 48 42 38 34 31 28 27 28 26 27 29 31 33 34 33 34 35 34 34 35 35 35 35 36 37 40 41 42 43 42 40 38 38 38 38 37 37 37 36 35 35
63 62 62 64 65 67 71 75 77 79 77 75 75 80 82 79 79 81 73 65 65 64 55 46 41 37 32 29 28 28 28 27 28 30 32 33 32 32 32 31 32 33 34 35 35 36 38 41 43 43 44 43 42 42 41 40 38 37 37 37 36 36 35
59 61 62 63 65 66 69 73 76 76 77 75 72 76 80 79 77 80 78 69 64 66 61 53 47 43 36 30 27 28 29 29 29 29 30 31 30 30 29 30 30 32 33 34 36 38 39 41 43 43 43 44 44 44 44 44 43 43 42 42 42 40 39
58 58 59 62 65 64 65 69 73 74 75 75 74 75 77 78 76 78 82 77 65 63 65 62 59 55 45 35 28 27 28 29 30 30 30 29 29 28 28 29 30 31 32 33 35 38 40 41 43 44 46 46 46 48 49 48 47 47 47 48 48 48 47
58 57 57 59 61 63 64 65 70 73 74 74 75 77 78 79 77 75 79 81 73 65 64 65 65 63 56 43 33 29 27 28 30 31 31 31 30 29 29 30 31 32 32 33 35 39 42 43 44 45 46 47 51 58 59 54 52 52 51 51 53 54 56
59 59 58 58 58 60 62 64 66 70 74 75 75 77 80 82 81 76 74 78 79 74 69 68 67 66 62 54 43 34 29 27 28 29 31 32 32 31 31 31 31 31 32 33 37 42 44 46 46 47 50 53 59 66 67 63 62 61 57 57 59 61 63
59 59 59 60 59 59 61 63 66 68 72 76 77 78 80 83 84 81 75 72 75 77 75 72 69 65 64 62 56 46 36 29 27 28 29 30 31 32 32 31 31 30 31 33 37 42 45 46 48 52 57 61 64 67 68 67 66 64 61 63 64 65 66
55 58 57 58 59 60 61 64 67 69 71 74 77 77 80 83 84 83 79 75 74 78 80 77 71 68 66 65 62 58 49 38 30 28 29 30 30 31 31 32 32 31 31 34 38 43 45 47 48 53 58 61 63 66 66 65 65 64 64 66 66 66 69
52 55 55 55 57 59 62 64 67 70 72 74 76 77 79 82 84 83 80 77 75 76 78 77 75 74 73 70 66 65 60 49 40 34 32 31 31 31 33 35 36 35 34 36 40 44 47 48 49 52 57 60 61 64 66 64 64 63 63 65 66 67 69
51 54 55 56 57 59 61 63 65 69 72 75 77 79 80 81 83 83 81 80 80 76 75 77 77 77 78 76 72 69 66 61 54 46 40 35 32 32 35 38 40 40 40 41 44 46 47 48 48 51 56 58 57 60 63 63 63 62 61 62 64 66 68
51 54 57 58 58 60 62 63 65 68 72 75 77 79 83 84 83 82 80 81 81 80 78 77 78 78 79 80 79 76 73 70 65 60 54 45 39 37 40 42 44 46 48 49 50 52 52 51 51 54 58 61 60 60 62 63 63 61 59 58 59 62 65
52 56 60 60 60 63 66 67 67 68 72 75 76 78 82 85 85 83 82 81 81 82 81 79 79 79 81 83 85 83 80 77 72 68 65 58 49 45 44 47 49 51 54 56 56 58 61 60 59 61 64 65 63 61 61 61 61 60 58 57 56 57 59
53 58 61 62 63 66 68 70 68 68 69 72 74 74 76 78 78 79 81 83 83 83 83 83 84 83 81 81 83 82 83 84 79 71 70 68 62 55 53 54 56 58 61 63 62 63 64 64 65 65 63 61 59 57 56 55 56 58 59 60 60 59 58
56 61 63 64 67 68 68 69 68 67 67 68 70 71 72 72 72 73 75 79 81 81 81 82 84 85 82 81 80 78 79 84 84 78 74 72 69 67 66 66 67 67 67 68 68 67 66 64 64 62 59 56 54 53 53 52 52 53 55 57 58 59 58
59 62 64 66 69 68 67 67 69 69 69 69 71 74 77 74 72 73 74 74 76 76 78 80 82 84 84 83 83 82 79 81 85 86 81 75 73 75 77 77 78 77 75 76 76 74 70 68 67 65 62 59 57 56 56 56 55 54 53 54 55 55 54
60 63 65 68 70 68 66 69 72 73 74 73 72 74 77 76 75 77 79 79 78 79 81 83 84 85 87 88 89 89 85 81 82 86 86 80 76 78 80 83 86 85 81 82 81 77 75 74 73 70 68 66 64 64 62 61 60 60 59 59 59 58 56
61 64 67 71 72 70 69 72 75 75 74 73 72 73 75 77 78 78 81 84 86 87 90 92 91 91 92 93 91 90 88 85 84 86 88 85 83 84 84 85 88 86 83 83 83 83 82 79 75 72 70 69 68 66 66 66 67 68 67 67 66 65 64
63 66 71 72 73 73 73 74 74 74 74 73 72 73 74 78 81 82 84 86 87 89 93 96 93 91 92 94 92 88 86 87 87 88 89 89 88 89 90 89 87 86 83 82 82 83 82 78 75 75 73 71 70 69 70 72 73 74 75 75 74 73 75
65 69 74 74 74 75 76 75 73 73 74 73 73 74 76 78 82 84 85 85 85 86 90 93 93 91 91 92 92 88 86 86 87 87 87 88 89 90 90 89 87 85 84 83 81 80 79 78 78 77 75 72 71 72 72 73 76 77 78 78 78 78 80
66 71 76 76 76 78 78 76 74 74 73 73 75 79 79 79 81 82 84 85 83 84 88 91 92 92 92 90 87 86 86 86 86 85 84 85 87 88 88 86 85 84 83 83 81 79 78 79 80 80 78 76 75 76 76 78 80 82 82 81 80 82 84
64 68 73 77 78 80 79 77 77 79 78 77 79 81 80 80 82 83 84 84 82 82 86 87 87 89 92 90 86 86 88 88 88 87 87 87 87 86 86 85 85 84 83 82 81 79 79 80 81 81 81 80 80 81 82 83 86 87 87 86 86 87 90
63 66 72 76 79 80 79 79 81 84 85 82 81 82 81 82 83 82 79 78 78 81 85 86 86 87 88 89 89 90 90 90 89 89 89 88 87 86 85 85 83 83 82 82 82 82 82 82 82 82 82 82 82 83 85 88 90 89 89 88 88 89 90
67 69 72 75 77 77 77 78 81 85 88 87 84 82 79 80 82 80 77 76 77 80 83 85 85 85 84 85 89 91 91 91 91 90 88 87 86 85 84 83 82 82 81 82 84 85 86 85 85 84 82 82 83 85 88 90 90 89 89 89 90 91 92
70 74 74 75 78 79 77 76 79 83 87 88 86 83 80 79 79 80 79 78 79 79 79 79 78 79 82 87 91 90 90 90 88 87 87 86 85 84 83 83 83 82 83 86 87 88 87 85 83 82 81 82 85 87 88 88 88 89 89 90 92 92 91
70 74 76 78 82 84 83 81 80 81 82 82 81 79 78 77 77 79 80 80 80 79 78 77 77 78 82 88 89 86 86 88 86 83 84 84 83 83 83 84 84 83 85 88 89 87 86 83 82 82 84 86 88 87 85 86 88 88 90 93 94 92 89
70 75 78 80 83 87 88 87 85 83 80 77 76 74 72 70 70 71 72 73 73 73 74 76 78 78 77 79 79 78 79 81 79 77 76 76 76 76 77 79 80 79 80 81 80 79 79 80 81 84 86 88 87 85 84 86 87 87 89 92 94 91 87
74 78 82 85 86 85 84 84 84 84 82 79 78 76 73 70 66 64 62 62 62 62 62 64 65 65 63 63 64 64 64 64 63 62 61 61 61 62 64 66 68 69 69 68 66 66 68 70 73 76 78 79 80 80 80 81 82 82 83 85 86 85 84
79 84 85 89 88 82 79 80 81 81 81 79 77 76 75 73 69 62 58 57 56 55 55 55 55 54 55 54 54 54 54 54 54 54 54 53 53 54 56 57 58 58 58 56 56 56 58 60 62 63 64 65 66 67 69 70 72 74 75 76 78 79 80
81 86 88 92 90 83 77 78 78 76 74 75 75 73 73 73 71 66 60 57 55 53 52 53 53 53 52 52 53 53 52 52 52 51 51 51 51 52 52 53 53 53 53 52 52 52 52 54 55 55 56 56 56 57 59 61 65 68 70 72 73 74 76
79 84 86 89 91 87 81 78 77 73 71 72 72 71 71 72 71 69 65 60 56 54 53 54 55 56 57 58 58 59 57 55 54 52 49 48 47 46 47 47 48 48 48 48 47 47 47 47 47 47 48 48 49 50 52 54 58 61 64 65 65 66 68
80 83 84 83 86 88 86 81 77 74 71 69 68 68 68 69 69 69 66 63 60 58 57 57 58 60 61 62 61 61 59 57 54 52 50 48 45 44 43 43 44 44 43 42 42 40 39 38 39 39 40 41 42 44 47 50 53 54 55 56 56 56 57
83 86 86 82 80 81 84 83 81 77 73 70 69 68 67 68 68 68 67 65 63 61 59 57 57 57 58 58 57 55 55 53 52 50 48 46 44 41 39 37 35 34 33 32 32 29 28 27 27 28 30 31 33 35 37 40 42 43 43 44 45 45 46